Flag for United Kingdom Weather past 2 weeks in Newcastle upon Tyne, England, United Kingdom

Now
57 °F

Scattered clouds.


Feels Like: 56 °F
Forecast: 45 / 62 °F
Wind: 7 mph from Northwest

Location: Newcastle

Current Time: Jul 30, 2015 at 1:33:35 PM

Latest Report: Jul 30, 2015 at 12:50 PM


Visibility: N/A

Pressure: 30.04 "Hg

Humidity: 63%

Dew point: 45 °F

Location of Newcastle upon TyneLocation

Historic Weather in Newcastle upon Tyne — Graph

°F

Newcastle upon Tyne temperature yesterday

Maximum temperature yesterday: 61 °F (at 11:50 AM)
Minimum temperature yesterday: 48 °F (at 1:20 AM)
Average temperature yesterday: 54 °F

Past Weeks' High & Low Weather Summary

 TemperatureHumidityPressure
High66 °F (Jul 17, 1:20 PM)100% (Jul 20, 6:20 AM)30.15 "Hg (Jul 20, 6:20 AM)
Low43 °F (Jul 26, 4:50 AM)49% (Jul 17, 3:20 PM)29.36 "Hg (Jul 27, 12:50 AM)
Average56 °F80%29.79 "Hg
* Reported Jul 15 12:20 PM — Jul 30 12:20 PM, Newcastle upon Tyne, Weather by CustomWeather, © 2015

Note: Actual official high and low records may vary slightly from our data, if they occured in-between our weather recording intervals... More about our weather records

Advertising

Newcastle upon Tyne weather history for previous 24 hours

 ConditionsComfort  
Time TempWeatherWind HumidityBarometerVisibility
12:20 PM
Thu, Jul 30
57 °FPartly sunny.8 mph63%30.04 "HgN/A
11:50 AM55 °FLight rain. Partly sunny.6 mph67%30.04 "HgN/A
11:20 AM54 °FLight rain. Broken clouds.9 mph72%30.04 "HgN/A
10:50 AM54 °FLight rain. Partly sunny.9 mph77%30.04 "HgN/A
10:20 AM54 °FLight rain. Broken clouds.7 mph82%30.04 "HgN/A
9:50 AM54 °FLight rain. Broken clouds.6 mph88%30.01 "HgN/A
9:20 AM54 °FLight rain. Partly sunny.5 mph94%30.01 "HgN/A
8:50 AM52 °FLight rain. Partly sunny.6 mph94%30.01 "HgN/A
8:20 AM52 °FLight rain. Partly sunny.3 mph94%30.01 "HgN/A
7:50 AM50 °FLight rain. Partly sunny.3 mph94%30.01 "HgN/A
7:20 AM50 °FLight rain. Partly sunny.3 mph94%30.01 "HgN/A
6:50 AM48 °FLight rain. Partly sunny.2 mph100%29.98 "HgN/A
6:20 AM48 °FLight rain. Broken clouds.3 mph100%29.98 "Hg5 mi
5:50 AM48 °FSprinkles. Partly cloudy.3 mph100%29.98 "Hg5 mi
5:20 AM48 °FSprinkles. Partly cloudy.3 mph100%29.98 "Hg5 mi
4:50 AM48 °FSprinkles. Partly cloudy.5 mph100%29.98 "Hg5 mi
4:20 AM50 °FSprinkles. Partly cloudy.5 mph94%29.98 "HgN/A
3:50 AM50 °FPartly cloudy.3 mph94%29.98 "HgN/A
3:20 AM50 °FSprinkles. Passing clouds.2 mph94%29.95 "HgN/A
2:50 AM50 °FSprinkles. Passing clouds.2 mph94%29.95 "HgN/A
2:20 AM50 °FRain. Passing clouds.5 mph94%29.95 "HgN/A
1:50 AM50 °FRain. Passing clouds.5 mph94%29.95 "HgN/A
1:20 AM50 °FPassing clouds.3 mph100%29.95 "HgN/A
12:50 AM50 °FPassing clouds.2 mph94%29.95 "HgN/A
12:20 AM52 °FPassing clouds.3 mph94%29.95 "HgN/A
11:50 PM
Wed, Jul 29
52 °FLight rain. Passing clouds.2 mph94%29.92 "HgN/A
11:20 PM52 °FLight rain. Passing clouds.2 mph94%29.92 "HgN/A
10:50 PM52 °FPassing clouds.No wind88%29.92 "HgN/A
10:20 PM52 °FPassing clouds.1 mph94%29.92 "HgN/A
9:50 PM52 °FBroken clouds.No wind94%29.92 "HgN/A
9:20 PM52 °FSprinkles. Broken clouds.No wind94%29.89 "HgN/A
8:50 PM52 °FSprinkles. Scattered clouds.1 mph94%29.89 "HgN/A
8:20 PM54 °FPartly sunny.5 mph88%29.89 "HgN/A
7:20 PM52 °FSprinkles. Scattered clouds.3 mph88%29.86 "Hg6 mi
6:50 PM52 °FRain showers. Partly sunny.5 mph88%29.86 "Hg4 mi
6:20 PM55 °FSprinkles. Partly sunny.3 mph82%29.86 "HgN/A
5:50 PM57 °FSprinkles. Partly sunny.2 mph72%29.86 "HgN/A
5:20 PM59 °FScattered showers. Partly sunny.5 mph59%29.83 "HgN/A
4:50 PM61 °FScattered clouds.8 mph59%29.83 "HgN/A
4:20 PM61 °FScattered showers. Scattered clouds.5 mph63%29.83 "HgN/A
3:20 PM61 °FScattered showers. Scattered clouds.13 mph63%29.83 "HgN/A
2:50 PM61 °FScattered showers. Scattered clouds.10 mph63%29.80 "HgN/A
2:20 PM59 °FScattered showers. Scattered clouds.6 mph68%29.80 "HgN/A
1:50 PM59 °FScattered clouds.12 mph63%29.80 "HgN/A
1:20 PM59 °FScattered clouds.15 mph59%29.80 "HgN/A
Weather by CustomWeather, © 2015

See weather overviewHow to use our weather pages